TimeEST,TemperatureF,Dew PointF,Humidity,Sea Level PressureIn,VisibilityMPH,Wind Direction,Wind SpeedMPH,Gust SpeedMPH,PrecipitationIn,Events,Conditions,WindDirDegrees,DateUTC
12:52 AM,14.0,14.0,100,-9999,0.1,North,20.7,-,N/A,Fog-Snow,Light Snow,10,2013-03-02 05:52:00
1:57 AM,14.0,14.0,100,-9999,0.1,North,25.3,-,N/A,Fog-Snow,Light Snow,360,2013-03-02 06:57:00
2:53 AM,14.0,14.0,100,-9999,0.1,North,24.2,28.8,N/A,Fog-Snow,Light Snow,360,2013-03-02 07:53:00
3:57 AM,15.8,15.8,100,-9999,0.1,North,29.9,38.0,N/A,Fog-Snow,Light Snow,360,2013-03-02 08:57:00
4:57 AM,15.8,15.8,100,-9999,0.1,North,32.2,-,N/A,Fog-Snow,Light Snow,10,2013-03-02 09:57:00
5:53 AM,15.8,15.8,100,-9999,0.1,North,34.5,42.6,N/A,Fog-Snow,Light Snow,10,2013-03-02 10:53:00
6:49 AM,14.0,14.0,100,-9999,0.1,North,32.2,43.7,N/A,Fog-Snow,Light Snow,10,2013-03-02 11:49:00
7:48 AM,10.4,10.4,100,-9999,0.1,North,28.8,34.5,N/A,Fog-Snow,Light Snow,10,2013-03-02 12:48:00
8:51 AM,15.8,15.8,100,-9999,0.1,North,23.0,-,N/A,Fog-Snow,Light Snow,10,2013-03-02 13:51:00
9:48 AM,14.0,14.0,100,-9999,0.0,North,12.7,-,N/A,Fog-Snow,Light Snow,10,2013-03-02 14:48:00
10:54 AM,15.8,15.8,100,-9999,0.1,North,32.2,36.8,N/A,Fog,Light Freezing Fog,10,2013-03-02 15:54:00
11:50 AM,17.6,17.6,100,-9999,0.1,North,24.2,35.7,N/A,Fog,Light Freezing Fog,360,2013-03-02 16:50:00
12:49 PM,15.8,15.8,100,-9999,0.1,North,20.7,32.2,N/A,Fog,Light Freezing Fog,360,2013-03-02 17:49:00
1:47 PM,17.6,17.6,100,-9999,0.1,NNW,31.1,34.5,N/A,Fog,Light Freezing Fog,330,2013-03-02 18:47:00
2:50 PM,14.0,14.0,100,-9999,0.1,NNW,21.9,-,N/A,Fog,Light Freezing Fog,340,2013-03-02 19:50:00
3:52 PM,14.0,14.0,100,-9999,0.1,NW,17.3,-,N/A,Fog-Snow,Light Snow,320,2013-03-02 20:52:00
4:56 PM,12.2,12.2,100,-9999,0.1,NW,15.0,-,N/A,Fog-Snow,Light Snow,320,2013-03-02 21:56:00
5:50 PM,10.4,10.4,100,-9999,0.1,North,11.5,18.4,N/A,Fog-Snow,Light Snow,350,2013-03-02 22:50:00
6:48 PM,14.0,14.0,100,-9999,0.1,NE,26.5,-,N/A,Fog-Snow,Light Snow,40,2013-03-02 23:48:00
7:53 PM,10.4,10.4,100,-9999,0.1,NE,28.8,-,N/A,Fog-Snow,Light Snow,40,2013-03-03 00:53:00
8:51 PM,10.4,10.4,100,-9999,0.1,NE,28.8,-,N/A,Fog-Snow,Light Snow,40,2013-03-03 01:51:00
9:54 PM,12.2,12.2,100,-9999,0.0,NE,26.5,-,N/A,Fog-Snow,Light Snow,40,2013-03-03 02:54:00
10:54 PM,14.0,14.0,100,-9999,0.0,ENE,23.0,26.5,N/A,Fog-Snow,Light Snow,70,2013-03-03 03:54:00
11:55 PM,14.0,14.0,100,-9999,0.0,East,25.3,-,N/A,Fog-Snow,Light Snow,80,2013-03-03 04:55:00